Location: Flotzheim
(48.8375°N, 10.8136°E)
Time: 03:02:31
(UTC+00:00)

RESURS DK-1 - Pass Details

Date: 23 January 2021
Orbit: 557 x 560 km, 69.9° (Epoch: 26 February)

Event Time Altitude Azimuth Distance (km) Brightness Sun altitude
Rises 16:55:51 0° 244° (WSW) 2,737 8.1 -9.2°
Reaches altitude 10° 16:58:24 10° 259° (W) 1,846 6.6 -9.6°
Maximum altitude 17:01:45 23° 314° (NW) 1,205 4.4 -10.1°
Drops below altitude 10° 17:05:06 10° 8° (N) 1,854 4.8 -10.6°
Enters shadow 17:07:02 - 20° (NNE) 2,521 5.3 -10.9°
